Aputiteeq

KL  EN  DA
ASIAQ
Weather Now GREENLAND SURVEY
Updated [WGT/WGST] Temperature [°C] Wind [m/s] Air pressure [hPa] Relative humidity [%] Precipitation [mm]
Present Wind chill Speed Max
06.07 06:00n/an/an/an/a1012n/an/a
06.07 05:00n/an/an/an/a1011n/an/a
06.07 04:00n/an/an/an/a1011n/an/a
06.07 03:00n/an/a2,6 ⇒3,61011n/an/a
06.07 02:00n/an/a2,6 ⇒3,11011n/an/a
06.07 01:00n/an/a2,1 ⇗2,61012n/an/a
06.07 00:00n/an/a1,0 ⇗1,51011n/an/a
05.07 23:00n/an/a2,1 ⇒2,61012n/an/a
05.07 22:00n/an/a1,5 ⇒2,11012n/an/a
05.07 21:00n/an/a1,0 ⇗1,51011n/an/a
05.07 20:00n/an/a2,1 ⇗2,61011n/an/a
05.07 19:00n/an/a2,1 ⇓3,11011n/an/a
05.07 18:00n/an/a1,5 ⇘3,11011n/an/a
05.07 17:00n/an/a1,5 ⇖2,11012n/an/a
05.07 16:00n/an/a2,6 ⇖3,11011n/an/a
05.07 15:00n/an/a3,1 ⇐4,11011n/an/a
05.07 14:00n/an/a3,1 ⇖4,11011n/an/a
05.07 13:00n/an/a1,5 ⇖2,11011n/an/a
05.07 12:00n/an/a0,5 ⇑1,51011n/an/a
05.07 11:00n/an/a1,5 ⇗2,11011n/an/a
05.07 10:00n/an/a2,1 ⇒3,11011n/an/a
05.07 09:00n/an/a2,1 ⇘2,61011n/an/a
05.07 08:00n/an/a2,1 ⇘3,11012n/an/a
05.07 07:00n/an/a2,1 ⇘3,11012n/an/a
05.07 06:00n/an/a1,0 ⇗2,11012n/an/a
Position: (67.78166666666,-32.2841666666)

[Back]